Dewpoint
49 46 43 45 46 44 42 40 39 42 47 44 40 39 40 40 40 40 41 49 52 54 55 57 57 58 58 57 58 58 59 59 60 60 60 61 57 52 50 49 49 47 48 48
42 39 43 46 47 46 45 42 41 44 45 45 42 39 40 40 40 40 40 46 52 54 56 58 58 57 58 59 58 58 58 59 61 62 61 56 51 49 49 46 45 44 45 44
39 41 46 44 44 45 44 42 43 41 45 45 44 42 41 40 41 40 41 44 53 56 55 52 49 47 47 46 46 47 47 48 50 57 53 50 50 49 46 44 39 38 38 38
39 42 43 43 43 44 41 45 42 41 41 37 45 35 40 40 40 39 40 44 54 52 49 47 47 45 44 42 40 40 41 41 44 49 49 48 46 43 41 40 38 34 34 33
35 37 39 39 42 43 41 45 43 42 40 39 40 38 38 40 39 38 40 49 49 47 46 44 42 40 39 38 36 35 34 34 35 39 42 41 38 37 35 34 34 33 32 31
36 39 39 40 43 43 46 42 41 41 39 33 38 36 35 38 39 37 44 45 45 43 41 38 36 34 33 32 31 30 31 32 32 31 30 29 29 30 30 30 31 32 31 32
31 32 39 41 41 43 43 38 32 30 30 29 35 37 36 39 39 38 41 42 42 39 35 34 32 32 32 30 30 32 33 34 35 35 34 34 33 33 33 34 34 33 33 32
26 24 36 40 38 37 39 37 31 25 25 30 35 33 33 35 35 38 39 40 39 35 34 33 34 35 37 38 38 38 38 37 38 37 37 38 37 37 36 35 35 33 30 24
26 28 38 40 40 39 38 36 37 28 27 28 33 37 36 35 35 37 38 39 34 32 33 35 38 40 40 40 39 38 38 38 37 37 37 37 36 34 32 29 25 24 24 21
36 30 36 38 41 39 38 38 32 33 23 23 30 30 31 33 33 35 36 35 32 34 38 40 40 39 38 38 38 38 37 36 35 33 28 25 23 22 22 23 23 23 23 22
38 35 34 36 36 35 36 36 37 36 33 26 25 26 24 33 34 34 35 33 34 38 40 39 39 37 35 34 33 33 28 24 23 24 24 22 22 21 21 21 21 22 22 22
38 36 31 33 36 37 37 34 35 31 30 29 26 26 26 31 34 34 34 35 38 39 39 38 36 33 33 32 29 27 23 22 23 23 22 20 20 20 19 19 20 21 20 22
37 33 27 28 33 36 35 35 36 35 32 29 27 25 28 28 34 34 38 39 39 39 38 35 32 30 27 23 21 20 21 21 21 21 19 19 18 18 18 19 19 20 20 20
39 34 30 24 27 32 32 34 35 34 29 28 26 24 28 27 33 34 40 39 39 37 36 33 28 23 20 20 18 18 19 20 20 20 20 21 19 18 18 19 19 20 19 19
37 31 29 29 31 30 31 32 35 34 32 30 28 28 26 29 29 34 39 39 38 37 35 31 24 20 19 18 17 17 17 18 17 17 18 19 20 19 20 20 19 20 19 18
37 32 27 25 28 30 30 33 32 34 34 34 32 31 31 31 30 38 39 39 38 37 35 31 22 19 17 17 17 17 17 17 17 17 18 18 18 19 19 18 17 17 17 17
34 30 27 22 27 26 19 29 32 32 34 33 31 32 26 30 34 38 39 38 38 37 35 26 20 18 18 17 17 17 17 18 18 18 17 17 17 17 17 16 15 15 15 15
32 32 32 22 23 15 24 22 28 33 33 35 34 29 27 30 34 39 39 38 38 37 32 23 18 18 19 19 18 18 19 18 17 16 16 15 15 15 15 14 14 14 14 13
36 33 29 24 24 22 25 22 27 27 28 31 32 32 28 30 31 33 37 37 38 35 26 22 19 19 19 18 18 18 18 17 15 14 14 14 15 15 15 14 13 13 14 12
34 34 31 22 17 11 20 21 27 30 23 23 27 32 29 30 27 29 35 36 32 26 23 21 20 19 18 18 18 17 16 15 12 12 13 13 14 14 13 12 13 14 13 10
29 29 24 21 21 22 21 24 27 18 22 23 24 26 30 29 29 31 33 28 27 25 22 19 17 17 18 18 17 16 15 13 13 13 13 13 13 14 13 13 15 13 12 12
23 22 23 21 25 17 23 24 24 26 25 23 24 25 31 29 30 31 28 26 24 21 20 18 16 16 17 17 16 15 13 12 12 12 13 14 15 14 12 15 16 15 14 14
22 26 24 25 24 22 23 26 27 26 24 25 26 27 30 29 28 27 26 24 22 20 18 17 15 14 15 16 16 14 12 12 13 13 11 12 14 16 16 14 15 14 15 14
15 17 20 17 24 24 20 19 23 26 25 26 28 28 29 28 28 26 25 22 20 19 17 17 15 15 14 15 16 14 13 13 9 8 11 13 12 13 13 14 15 13 12 11
20 17 17 18 20 19 20 19 21 23 24 25 27 28 28 28 26 25 23 20 18 18 18 17 16 15 14 14 12 10 11 10 9 11 12 13 13 10 11 12 11 12 12 12
19 17 14 12 18 19 14 19 22 24 23 25 26 26 27 27 25 22 20 18 18 17 17 17 15 14 11 10 9 7 7 7 8 11 11 10 10 9 9 8 7 9 10 11
Lifted_Index
2 2 1 1 1 1 1 2 2 2 2 2 1 1 1 1 1 0 -0 -1 -2 -2 -2 -2 -2 -1 -1 -1 -1 -1 -1 -1 -1 -1 -0 -0 0 0 1 1 2 2 3 4
2 2 2 1 1 1 1 1 2 2 2 2 2 1 1 1 1 0 0 -1 -2 -2 -2 -2 -2 -1 -1 -1 -1 -1 -1 -1 -1 -1 -1 -0 -0 0 1 1 2 4 6 7
3 3 2 2 1 1 1 1 1 2 2 2 2 2 1 1 1 1 0 -0 -1 -2 -2 -2 -1 -1 -1 -1 -1 -1 -1 -1 -1 -1 -1 -1 -0 0 1 2 4 7 10 11
3 3 3 2 2 1 1 1 2 2 2 2 2 2 1 1 1 1 0 -0 -1 -1 -2 -1 -1 -1 -1 -1 -1 -1 -1 -1 -1 -1 -1 -0 -0 1 3 5 8 11 13 14
3 3 3 2 2 2 2 2 2 2 2 1 1 1 1 1 1 1 1 0 -1 -1 -1 -1 -1 -1 -1 -0 -0 -0 -0 -0 0 1 1 1 2 4 8 10 11 13 14 14
3 3 3 3 3 2 2 2 1 1 1 1 1 2 1 1 1 1 0 0 -0 -0 -0 -0 -0 -0 -0 0 1 1 2 3 4 5 5 5 6 9 11 12 12 11 11 11
3 3 3 3 3 3 2 2 1 1 1 1 2 2 2 1 1 1 1 1 1 1 1 1 1 1 1 1 3 4 5 6 9 10 9 9 9 10 10 10 10 10 10 10
4 4 3 3 3 3 2 2 2 1 1 2 2 2 2 2 1 1 1 1 1 2 2 2 2 2 3 4 6 7 8 9 10 10 10 10 10 10 10 10 10 11 12 13
4 4 4 3 3 2 2 2 2 2 2 2 2 2 2 2 2 1 1 1 1 2 2 3 3 4 5 7 8 9 9 10 9 9 9 9 10 11 11 12 13 14 16 17
3 4 4 3 2 2 2 2 2 2 2 1 2 2 3 2 2 1 1 1 1 2 3 3 4 6 8 9 9 9 9 9 9 9 10 11 12 13 14 15 17 18 19 19
2 3 4 4 3 3 3 3 2 2 2 1 2 2 3 3 2 2 1 1 1 2 3 4 6 7 8 8 8 8 9 9 10 11 12 14 15 16 17 18 19 19 19 19
2 2 3 4 4 4 4 3 3 3 3 3 2 3 4 4 3 3 2 2 3 3 4 5 6 7 7 7 8 8 9 10 12 13 15 16 17 18 18 19 19 19 19 19
1 2 3 3 4 4 4 4 4 4 4 4 3 3 3 4 3 3 3 3 4 5 5 6 6 7 7 7 8 9 10 12 14 15 16 17 17 18 18 18 18 18 18 19
2 2 2 3 3 4 4 4 4 4 4 4 4 3 3 3 3 3 3 4 4 5 6 6 6 6 7 8 9 10 12 14 16 16 17 17 17 17 17 17 18 18 19 19
2 2 3 3 3 3 4 4 4 4 4 4 4 4 3 4 4 4 4 5 4 5 6 6 6 6 7 8 9 10 13 15 16 16 17 17 17 17 17 17 18 18 19 19
3 3 3 3 3 3 3 4 4 4 4 4 4 4 4 4 4 5 5 5 5 5 5 6 6 6 7 7 9 11 13 15 16 16 16 17 17 16 16 17 17 18 18 19
3 3 3 3 3 3 3 4 4 4 4 4 4 4 4 4 4 5 5 5 5 5 5 5 5 5 6 7 9 11 13 14 15 16 16 16 16 16 16 16 17 17 18 19
2 2 2 2 3 3 3 4 4 4 4 4 4 4 4 4 5 5 5 5 5 5 5 4 4 5 6 8 10 12 13 14 15 15 16 16 15 15 15 16 17 18 19 19
2 2 2 2 2 3 3 3 4 4 4 4 4 4 4 4 4 4 5 5 5 5 4 4 4 5 7 9 10 11 12 13 14 15 15 15 15 15 15 16 17 18 19 20
2 1 1 2 2 3 3 3 3 3 4 4 4 4 4 4 4 3 4 5 5 4 4 4 4 5 7 9 10 10 11 12 14 14 14 14 15 15 16 17 18 19 20 20
2 2 1 2 2 3 3 3 3 3 3 3 4 4 4 4 4 4 4 4 4 3 3 3 4 6 8 9 10 10 10 12 13 14 14 15 15 16 17 18 19 19 20 20
2 1 1 1 2 2 3 3 3 3 3 3 4 4 4 4 4 4 4 4 4 3 3 3 5 6 7 9 9 9 11 12 14 14 14 15 16 17 18 18 19 19 20 20
2 2 2 2 2 2 2 2 3 3 4 4 4 4 4 4 4 4 4 4 4 3 3 4 5 6 7 9 9 10 12 13 14 14 14 15 16 17 18 18 19 19 19 20
3 3 2 2 2 2 2 2 3 4 4 5 5 4 4 3 3 3 4 4 4 4 4 5 6 6 7 9 10 12 13 14 14 14 14 15 16 17 18 18 19 19 20 20
5 5 4 3 3 3 3 3 4 4 5 6 5 5 4 3 3 3 4 4 4 4 5 6 6 7 8 10 11 13 14 14 14 14 14 15 16 17 18 18 19 20 21 22
6 6 4 4 5 5 5 5 5 5 5 6 6 5 4 3 3 3 4 4 4 5 5 6 7 7 9 11 12 13 14 14 14 14 14 15 16 17 18 18 19 21 22 23